[[{"header":{"parameterUnit":"m.s-1","parameterCategory":1,"la1":30.2991,"la2":30.254,"lo1":-89.0895,"lo2":-89.0444,"dy":0.0017,"dx":0.0017,"nx":28,"ny":28,"refTime":"2026-01-04T03:00:00:Z","depth":0,"parameterNumber":2,"parameterNumberName":"U-component_of_WINDS"},"data":[0,0,0,0,0,0,0,0,0,0,0,0,0,0,0,0,0,0,0,0,0,0,0,0,0,0,0,0,0,0,0,0,0,0,0,0,0,0,0,0,0,0,0,0,0,0,0,0,0,0,0,0,0,0,0,0,0,0,-1.3703,-1.3705,0,-1.3875,-1.3877,-1.3879,-1.3953,-1.3953,-1.3952,-1.3952,-1.4129,-1.4134,-1.4139,0,0,0,0,0,0,0,0,0,0,0,0,0,-1.3437,-1.3441,-1.3703,-1.3705,-1.3707,-1.3875,-1.3877,-1.388,-1.3953,-1.3953,-1.3952,-1.3952,-1.4128,-1.4134,-1.414,0,0,0,0,0,0,0,0,0,0,0,0,0,-1.3575,-1.3443,-1.3702,-1.3764,-1.3771,-1.3874,-1.3877,-1.388,-1.3953,-1.3953,-1.3952,-1.3952,-1.4126,-1.4133,-1.4141,-1.4196,0,0,-1.4163,-1.4167,0,0,0,0,0,0,0,0,-1.3567,-1.3585,-1.3753,-1.376,-1.3768,-1.3892,-1.3849,-1.3986,-1.3953,-1.3884,-1.3952,-1.3952,-1.4051,-1.4064,-1.4098,-1.4204,-1.4212,-1.4164,-1.4169,-1.4172,-1.4174,0,0,0,0,0,0,0,-1.3558,-1.3578,-1.3771,-1.3755,-1.3764,-1.3783,-1.3802,-1.3875,-1.3968,-1.389,-1.3896,-1.3915,-1.4055,-1.409,-1.4103,-1.4214,-1.4164,-1.4171,-1.4175,-1.4178,-1.4374,-1.4375,0,0,0,0,0,0,-1.3538,-1.3569,-1.3766,-1.3776,-1.3664,-1.3788,-1.3809,-1.3853,-1.3967,-1.3984,-1.3915,-1.3918,-1.4078,-1.4094,-1.4109,-1.4181,-1.4172,-1.4179,-1.4183,-1.4373,-1.4374,-1.4375,0,0,0,0,0,0,-1.3532,-1.3555,-1.3759,-1.3674,-1.3702,-1.3793,-1.3841,-1.3856,-1.3892,-1.3986,-1.4003,-1.3934,-1.4078,-1.4099,-1.4174,-1.4188,-1.4182,-1.4189,-1.4372,-1.4373,-1.4374,-1.4325,0,0,0,0,0,0,-1.3524,-1.3552,-1.3574,-1.3674,-1.3706,-1.382,-1.3842,-1.386,-1.3905,-1.391,-1.4009,-1.4025,-1.4079,-1.4162,-1.4181,-1.4199,-1.4195,-1.4371,-1.4373,-1.4374,-1.4326,-1.4325,-1.4323,0,0,0,0,0,-1.3514,-1.3554,-1.3575,-1.3598,-1.3735,-1.3821,-1.3839,-1.39,-1.3905,-1.3928,-1.3989,-1.4022,-1.4183,-1.4169,-1.4191,-1.4211,-1.4371,-1.4372,-1.4374,-1.4327,-1.4325,-1.4323,0,0,0,0,0,0,-1.3454,-1.3568,-1.3593,-1.3666,-1.3733,-1.3833,-1.3864,-1.3897,-1.3964,-1.3966,-1.404,-1.4061,-1.413,-1.4178,-1.416,-1.427,-1.428,-1.4286,-1.4236,-1.4235,-1.4234,-1.4221,-1.4201,0,0,0,0,0,-1.3448,-1.3508,-1.3605,-1.366,-1.3693,-1.3772,-1.3812,-1.3853,-1.3926,-1.3954,-1.4021,-1.409,-1.4156,-1.4198,-1.4265,-1.4333,-1.4356,-1.4358,-1.4356,-1.4355,-1.4359,-1.4398,-1.44,-1.438,-1.438,-1.438,0,0,-1.3439,-1.3509,-1.3542,-1.365,-1.3707,-1.3767,-1.3796,-1.3858,-1.3903,-1.3964,-1.4039,-1.4089,-1.4171,-1.4243,-1.4278,-1.4285,-1.437,-1.4357,-1.4355,-1.436,-1.44,-1.4402,-1.4404,-1.4381,-1.4381,-1.4381,0,0,-1.3453,-1.3512,-1.3564,-1.362,-1.3705,-1.3758,-1.377,-1.3865,-1.3901,-1.3977,-1.4023,-1.4078,-1.4191,-1.4247,-1.4291,-1.4324,-1.4357,-1.4343,-1.4336,-1.4374,-1.4375,-1.4377,-1.4389,-1.4392,-1.4347,-1.4347,-1.4347,0,-1.3431,-1.3523,-1.3587,-1.3646,-1.3692,-1.3749,-1.3802,-1.3854,-1.3956,-1.3986,-1.3993,-1.4135,-1.4195,-1.428,-1.4288,-1.4321,-1.4337,-1.4333,-1.437,-1.4372,-1.4375,-1.4387,-1.4391,-1.4345,-1.4345,-1.4346,-1.4346,0,-1.3491,-1.3554,-1.3586,-1.3683,-1.3732,-1.3788,-1.386,-1.3902,-1.3939,-1.399,-1.4067,-1.414,-1.4221,-1.4245,-1.4281,-1.4335,-1.4337,-1.4355,-1.4367,-1.4374,-1.4386,-1.4391,-1.4342,-1.4343,-1.4343,-1.4344,0,0,-1.3472,-1.3603,-1.3613,-1.3658,-1.3755,-1.3805,-1.3863,-1.3943,-1.3977,-1.4046,-1.4097,-1.419,-1.4208,-1.4257,-1.43,-1.4333,-1.4354,-1.4348,-1.4351,-1.4347,-1.4417,-1.4403,-1.4407,-1.4376,-1.4377,-1.4378,-1.441,0,-1.3499,-1.3606,-1.3665,-1.3747,-1.3805,-1.386,-1.391,-1.3975,-1.4025,-1.4082,-1.4137,-1.4201,-1.422,-1.425,-1.4285,-1.4344,-1.4369,-1.4343,-1.4424,-1.4426,-1.4402,-1.4414,-1.4399,-1.4426,-1.4416,-1.4417,-1.4417,0,-1.3545,-1.3612,-1.3699,-1.3789,-1.3816,-1.3861,-1.3938,-1.3992,-1.4066,-1.41,-1.4154,-1.4197,-1.426,-1.4265,-1.4354,-1.4334,-1.4371,-1.4405,-1.4407,-1.4418,-1.4422,-1.4424,-1.4436,-1.444,-1.4426,-1.4425,-1.4424,0,-1.3522,-1.3634,-1.3701,-1.3737,-1.3844,-1.3874,-1.392,-1.3994,-1.4037,-1.4105,-1.4134,-1.4207,-1.4248,-1.4304,-1.4365,-1.4364,-1.4447,-1.4458,-1.4477,-1.4475,-1.4493,-1.4491,-1.451,-1.4516,-1.4516,-1.4515,-1.4515,0,-1.3547,-1.3598,-1.3692,-1.3733,-1.3792,-1.3859,-1.3915,-1.3966,-1.4031,-1.4083,-1.4134,-1.4181,-1.426,-1.4317,-1.4365,-1.4431,-1.4449,-1.4478,-1.449,-1.4473,-1.447,-1.4499,-1.4499,-1.4517,-1.4516,-1.4516,-1.4516,0,-1.3532,-1.3597,-1.3673,-1.3767,-1.3792,-1.3831,-1.3912,-1.3954,-1.4005,-1.407,-1.4089,-1.417,-1.424,-1.4306,-1.44,-1.4432,-1.4498,-1.4514,-1.4472,-1.4479,-1.4494,-1.4492,-1.4534,-1.4542,-1.4541,-1.454,-1.454,0,-1.3543,-1.3584,-1.3682,-1.372,-1.3764,-1.3825,-1.3869,-1.3936,-1.398,-1.4068,-1.4099,-1.4172,-1.4235,-1.4343,-1.4411,-1.4482,-1.4501,-1.451,-1.4512,-1.4493,-1.4501,-1.4498,-1.4502,-1.4509,-1.4508,-1.4508,-1.4508,0,-1.3556,-1.3585,-1.3647,-1.372,-1.3772,-1.3833,-1.3895,-1.3923,-1.4002,-1.4049,-1.4121,-1.4169,-1.4264,-1.4336,-1.4415,-1.4463,-1.4498,-1.4507,-1.4515,-1.4499,-1.4473,-1.4487,-1.4468,-1.4506,-1.4506,-1.4506,-1.4506,-1.4506,-1.3555,-1.3593,-1.3668,-1.3735,-1.3788,-1.3845,-1.3889,-1.3945,-1.4006,-1.4088,-1.4124,-1.4196,-1.4269,-1.4379,-1.4426,-1.4483,-1.4492,-1.4504,-1.4507,-1.4509,-1.4505,-1.4463,-1.4498,-1.4498,-1.4498,-1.4498,-1.4498,0,-1.357,-1.362,-1.3681,-1.3767,-1.3819,-1.3847,-1.3918,-1.396,-1.4023,-1.4088,-1.4147,-1.4229,-1.4299,-1.4371,-1.4445,-1.4477,-1.4495,-1.4494,-1.4493,-1.4503,-1.4493,-1.4479,-1.4478,-1.4478,-1.4478,-1.4478,-1.4478,-1.4478,-1.3584,-1.365,-1.3689,-1.3782,-1.3832,-1.3903,-1.3941,-1.3993,-1.4046,-1.4134,-1.4192,-1.4239,-1.4307,-1.4386,-1.4451,-1.447,-1.4495,-1.449,-1.4513,-1.4503,-1.4504,-1.4505,-1.4492,-1.4494,-1.4494,-1.4519,-1.4519,-1.4519]},{"header":{"parameterUnit":"m.s-1","parameterCategory":1,"la1":30.2991,"la2":30.254,"lo1":-89.0895,"lo2":-89.0444,"dy":0.0017,"dx":0.0017,"nx":28,"ny":28,"refTime":"2026-01-04T03:00:00:Z","depth":0,"parameterNumber":3,"parameterNumberName":"V-component_of_WINDS"},"data":[0,0,0,0,0,0,0,0,0,0,0,0,0,0,0,0,0,0,0,0,0,0,0,0,0,0,0,0,0,0,0,0,0,0,0,0,0,0,0,0,0,0,0,0,0,0,0,0,0,0,0,0,0,0,0,0,0,0,0.9018,0.9018,0,0.9019,0.9019,0.9019,0.9046,0.9047,0.9047,0.9048,0.9046,0.9045,0.9044,0,0,0,0,0,0,0,0,0,0,0,0,0,0.9037,0.9036,0.9018,0.9018,0.9018,0.9019,0.9019,0.9019,0.9046,0.9047,0.9048,0.9048,0.9046,0.9045,0.9044,0,0,0,0,0,0,0,0,0,0,0,0,0,0.9032,0.9036,0.9018,0.9032,0.9033,0.9019,0.9019,0.9019,0.9046,0.9047,0.9048,0.9049,0.9046,0.9045,0.9044,0.9016,0,0,0.9041,0.904,0,0,0,0,0,0,0,0,0.9032,0.9032,0.903,0.9031,0.9032,0.9034,0.9025,0.9018,0.9045,0.9041,0.9048,0.9049,0.904,0.904,0.9038,0.9016,0.9016,0.9041,0.904,0.9039,0.9039,0,0,0,0,0,0,0,0.9033,0.9032,0.9018,0.903,0.9031,0.9037,0.9037,0.9024,0.9035,0.9041,0.9043,0.9043,0.9041,0.9039,0.9038,0.9016,0.9041,0.904,0.9039,0.9038,0.8971,0.897,0,0,0,0,0,0,0.9032,0.9032,0.9018,0.9019,0.9035,0.9036,0.9036,0.9032,0.9035,0.9036,0.9042,0.9044,0.904,0.9039,0.9038,0.9005,0.9039,0.9038,0.9038,0.8972,0.897,0.8969,0,0,0,0,0,0,0.9032,0.903,0.9018,0.9026,0.9025,0.9034,0.9029,0.9031,0.9029,0.9036,0.9037,0.9038,0.9041,0.9039,0.9021,0.9005,0.9038,0.9037,0.8973,0.8971,0.897,0.8938,0,0,0,0,0,0,0.9032,0.903,0.902,0.9025,0.9024,0.9003,0.9028,0.9031,0.9027,0.903,0.9032,0.9033,0.9042,0.9023,0.902,0.9004,0.9036,0.8975,0.8972,0.897,0.8941,0.8936,0.8932,0,0,0,0,0,0.9033,0.9011,0.902,0.9018,0.9012,0.9002,0.9001,0.9012,0.9026,0.9015,0.902,0.9033,0.9008,0.9021,0.9018,0.9001,0.8976,0.8973,0.8971,0.8943,0.8937,0.8932,0,0,0,0,0,0,0.9002,0.9012,0.9021,0.9,0.9,0.9006,0.8993,0.9005,0.9,0.9003,0.9016,0.9016,0.8996,0.8997,0.9012,0.8974,0.8994,0.8991,0.8974,0.8968,0.8964,0.8963,0.9035,0,0,0,0,0,0.8993,0.8985,0.8993,0.8974,0.8973,0.8983,0.8979,0.8988,0.8988,0.8988,0.8991,0.8989,0.8981,0.8975,0.8968,0.8942,0.8942,0.8929,0.8924,0.892,0.8917,0.8903,0.8897,0.8961,0.8961,0.8961,0,0,0.8974,0.8978,0.8972,0.8968,0.8969,0.8959,0.8983,0.8972,0.8964,0.8985,0.8969,0.8971,0.897,0.8948,0.8938,0.8948,0.89,0.8917,0.8914,0.8912,0.8899,0.8893,0.8888,0.8959,0.8959,0.896,0,0,0.8933,0.8936,0.892,0.8921,0.8922,0.8929,0.8926,0.893,0.8933,0.8917,0.8932,0.8923,0.8909,0.8908,0.8905,0.8865,0.8876,0.8862,0.8837,0.8823,0.8818,0.8813,0.8798,0.8792,0.8859,0.8859,0.8859,0,0.8909,0.8895,0.891,0.8898,0.8895,0.8916,0.8899,0.8899,0.8897,0.8894,0.8906,0.8888,0.8889,0.8867,0.8857,0.8855,0.885,0.8861,0.8818,0.8813,0.8809,0.8794,0.8789,0.8857,0.8857,0.8858,0.8858,0,0.8865,0.8855,0.8842,0.8841,0.8837,0.8823,0.8834,0.8828,0.8838,0.8843,0.8826,0.8828,0.8822,0.8817,0.8826,0.8796,0.8802,0.8815,0.8835,0.8801,0.8787,0.8782,0.8855,0.8855,0.8856,0.8856,0,0,0.8803,0.8812,0.8806,0.8806,0.881,0.8802,0.8789,0.8783,0.8777,0.8776,0.8764,0.8752,0.8764,0.8761,0.877,0.8758,0.8725,0.8773,0.8773,0.8763,0.8691,0.8679,0.8673,0.8734,0.8733,0.8732,0.869,0,0.8763,0.8741,0.8754,0.8729,0.872,0.874,0.8728,0.8728,0.8733,0.8726,0.8731,0.8722,0.874,0.8738,0.8727,0.8731,0.8711,0.8735,0.8721,0.872,0.8719,0.8666,0.8654,0.8614,0.8685,0.8684,0.8684,0,0.8713,0.8711,0.8685,0.8691,0.8687,0.8676,0.8673,0.8666,0.8666,0.8671,0.8668,0.868,0.8666,0.8687,0.8667,0.8683,0.8678,0.8679,0.8678,0.8676,0.8698,0.866,0.8602,0.8596,0.8676,0.8676,0.8677,0,0.8669,0.8659,0.8643,0.8642,0.8649,0.864,0.8642,0.8645,0.864,0.8637,0.8634,0.8629,0.8625,0.862,0.863,0.8645,0.8608,0.863,0.861,0.861,0.86,0.86,0.8538,0.86,0.86,0.86,0.86,0,0.8622,0.8605,0.8623,0.8613,0.8595,0.861,0.8591,0.8595,0.8597,0.8587,0.8604,0.8594,0.8609,0.86,0.8607,0.8589,0.8588,0.859,0.8592,0.8587,0.8587,0.8583,0.8585,0.8598,0.8599,0.8599,0.8599,0,0.8569,0.8581,0.8564,0.8572,0.8573,0.8559,0.8566,0.8556,0.8563,0.855,0.8548,0.8558,0.8548,0.8558,0.8549,0.8554,0.8529,0.8536,0.8529,0.853,0.8509,0.851,0.8441,0.8432,0.8501,0.85,0.85,0,0.8537,0.8525,0.8532,0.8527,0.8529,0.8521,0.8517,0.8532,0.8527,0.8527,0.8517,0.8509,0.8504,0.8488,0.8493,0.8486,0.8492,0.8468,0.8491,0.8487,0.849,0.8489,0.8488,0.8463,0.8462,0.8462,0.8461,0,0.8479,0.8486,0.8481,0.8477,0.8473,0.8471,0.847,0.8464,0.848,0.8473,0.8465,0.846,0.8452,0.8443,0.8438,0.8439,0.8452,0.8454,0.8449,0.8443,0.8439,0.844,0.8515,0.8455,0.8456,0.8456,0.8457,0.8457,0.8435,0.8425,0.8428,0.8422,0.8423,0.8422,0.8413,0.8419,0.8413,0.8407,0.8417,0.8405,0.8406,0.8401,0.84,0.8391,0.8401,0.8393,0.8391,0.8388,0.8385,0.8443,0.839,0.839,0.839,0.8391,0.8391,0,0.8377,0.838,0.8374,0.8373,0.8368,0.8382,0.8382,0.8376,0.8366,0.8367,0.8361,0.8351,0.8343,0.8349,0.8342,0.8333,0.8338,0.833,0.833,0.833,0.8377,0.8382,0.8326,0.8326,0.8326,0.8326,0.8326,0.8326,0.8346,0.8329,0.8336,0.832,0.8324,0.8314,0.8312,0.8311,0.8311,0.8299,0.8293,0.8298,0.83,0.8293,0.8286,0.8288,0.8284,0.8274,0.8277,0.8321,0.8327,0.8333,0.8337,0.8273,0.8273,0.8231,0.823,0.823]}]]